Flag for Canada Weather past 2 weeks in Welland, Ontario, Canada

Now
83 °F

Warm.


Feels Like: 85 °F
Forecast: N/A
Wind: 7 mph from Southeast

Location: Port Colborne Airport

Current Time: Sep 4, 2015 at 5:47:21 PM

Latest Report: Sep 4, 2015 at 5:00 PM


Visibility: N/A

Pressure: 30.05 "Hg

Humidity: 55%

Dew point: 65 °F

Location of WellandLocation

Historic Weather in Welland — Graph

°F

Welland temperature yesterday

Maximum temperature yesterday: 77 °F (at 8:00 PM)
Minimum temperature yesterday: 71 °F (at 7:00 AM)
Average temperature yesterday: 74 °F

Past Weeks' High & Low Weather Summary

 TemperatureHumidityPressure
High82 °F (Sep 4, 3:00 PM)96% (Sep 2, 4:00 AM)30.23 "Hg (Sep 2, 4:00 AM)
Low58 °F (Aug 27, 3:00 AM)40% (Aug 23, 6:00 PM)29.77 "Hg (Aug 24, 3:00 AM)
Average68 °F73%30.04 "Hg
* Reported Aug 20 4:00 PM — Sep 4 4:00 PM, Welland, Weather by CustomWeather, © 2015

Note: Actual official high and low records may vary slightly from our data, if they occured in-between our weather recording intervals... More about our weather records

Advertising

Welland weather history for previous 24 hours

 ConditionsComfort  
Time TempWeatherWind HumidityBarometerVisibility
4:00 PM
Fri, Sep 4
82 °FWarm.8 mph55%30.05 "HgN/A
3:00 PM82 °FWarm.13 mph55%30.06 "HgN/A
2:00 PM81 °FWarm.13 mph56%30.07 "HgN/A
1:00 PM79 °FWarm.12 mph64%30.07 "HgN/A
12:00 PM77 °FWarm.14 mph68%30.08 "HgN/A
11:00 AM76 °FMild.12 mph73%30.07 "HgN/A
10:00 AM75 °FMild.8 mph75%30.07 "HgN/A
9:00 AM72 °FMild.8 mph81%30.07 "HgN/A
8:00 AM71 °FMild.8 mph84%30.06 "HgN/A
7:00 AM70 °FMild.9 mph86%30.04 "HgN/A
6:00 AM71 °FMild.10 mph85%30.02 "HgN/A
5:00 AM70 °FMild.7 mph92%30.01 "HgN/A
4:00 AM69 °FMild.9 mph93%30.00 "HgN/A
3:00 AM71 °FMild.1 mph88%29.99 "HgN/A
2:00 AM71 °FMild.2 mph88%29.99 "HgN/A
1:00 AM72 °FMild.7 mph93%29.98 "HgN/A
12:00 AM72 °FMild.3 mph91%29.96 "HgN/A
11:00 PM
Thu, Sep 3
72 °FMild.8 mph88%29.96 "HgN/A
10:00 PM74 °FMild.9 mph84%29.96 "HgN/A
9:00 PM75 °FMild.9 mph80%29.95 "HgN/A
8:00 PM77 °FWarm.12 mph72%29.95 "HgN/A
7:00 PM76 °FMild.6 mph87%29.94 "HgN/A
6:00 PM75 °FMild.7 mph89%29.93 "HgN/A
5:00 PM72 °FMild.10 mph95%29.91 "HgN/A
Weather by CustomWeather, © 2015

See weather overviewHow to use our weather pages